[[{"header":{"parameterUnit":"m.s-1","parameterCategory":1,"la1":30.2991,"la2":30.254,"lo1":-89.0895,"lo2":-89.0444,"dy":0.0017,"dx":0.0017,"nx":28,"ny":28,"refTime":"2025-04-20T03:00:00:Z","depth":0,"parameterNumber":2,"parameterNumberName":"U-component_of_WINDS"},"data":[0,0,0,0,0,0,0,0,0,0,0,0,0,0,0,0,0,0,0,0,0,0,0,0,0,0,0,0,0,0,0,0,0,0,0,0,0,0,0,0,0,0,0,0,0,0,0,0,0,0,0,0,0,0,0,0,0,0,-3.4705,-3.4706,0,-3.475,-3.4751,-3.4751,-3.4726,-3.4725,-3.4723,-3.4722,-3.4769,-3.4771,-3.4774,0,0,0,0,0,0,0,0,0,0,0,0,0,-3.4599,-3.4601,-3.4705,-3.4706,-3.4706,-3.475,-3.4751,-3.4752,-3.4726,-3.4725,-3.4723,-3.4722,-3.4768,-3.4771,-3.4774,0,0,0,0,0,0,0,0,0,0,0,0,0,-3.4645,-3.4602,-3.4705,-3.4699,-3.4699,-3.475,-3.4751,-3.4752,-3.4727,-3.4725,-3.4723,-3.4721,-3.4767,-3.4771,-3.4774,-3.4835,0,0,-3.4786,-3.4787,0,0,0,0,0,0,0,0,-3.4642,-3.4649,-3.4699,-3.4699,-3.4699,-3.4731,-3.4731,-3.4779,-3.4727,-3.4716,-3.4722,-3.472,-3.4758,-3.4762,-3.4775,-3.4837,-3.4839,-3.4786,-3.4788,-3.479,-3.4791,0,0,0,0,0,0,0,-3.4639,-3.4647,-3.4723,-3.47,-3.47,-3.4695,-3.4699,-3.474,-3.4747,-3.4717,-3.4715,-3.4721,-3.4758,-3.4771,-3.4776,-3.4839,-3.4786,-3.4789,-3.4791,-3.4793,-3.4955,-3.4957,0,0,0,0,0,0,-3.4636,-3.4644,-3.4722,-3.4724,-3.4666,-3.4698,-3.4703,-3.4722,-3.4746,-3.4748,-3.4722,-3.4719,-3.4766,-3.4771,-3.4777,-3.485,-3.479,-3.4793,-3.4795,-3.4953,-3.4956,-3.4958,0,0,0,0,0,0,-3.4634,-3.4643,-3.472,-3.4684,-3.4693,-3.4702,-3.4724,-3.4724,-3.4738,-3.4751,-3.4752,-3.4735,-3.4765,-3.4772,-3.4821,-3.4851,-3.4795,-3.4798,-3.495,-3.4954,-3.4957,-3.4994,0,0,0,0,0,0,-3.4631,-3.4643,-3.4665,-3.4685,-3.4695,-3.4762,-3.4726,-3.4727,-3.4744,-3.4741,-3.4763,-3.4765,-3.4764,-3.4816,-3.4824,-3.4855,-3.4801,-3.4948,-3.4952,-3.4956,-3.499,-3.4999,-3.5005,0,0,0,0,0,-3.4627,-3.4673,-3.4666,-3.4675,-3.4723,-3.4763,-3.477,-3.4768,-3.4747,-3.477,-3.4778,-3.4764,-3.4847,-3.4821,-3.4831,-3.4862,-3.4946,-3.4951,-3.4955,-3.4987,-3.4997,-3.5005,0,0,0,0,0,0,-3.4656,-3.4676,-3.4668,-3.4721,-3.4741,-3.4759,-3.4787,-3.4778,-3.4804,-3.48,-3.4797,-3.4802,-3.4853,-3.4863,-3.4834,-3.4923,-3.4893,-3.49,-3.4914,-3.4923,-3.4931,-3.4926,-3.4804,0,0,0,0,0,-3.4669,-3.47,-3.4715,-3.4761,-3.4772,-3.4778,-3.4796,-3.4793,-3.4813,-3.4821,-3.4833,-3.4854,-3.4885,-3.4905,-3.4934,-3.4993,-3.4998,-3.502,-3.5028,-3.5034,-3.5039,-3.5072,-3.5082,-3.4974,-3.4974,-3.4974,0,0,-3.4695,-3.4709,-3.4729,-3.4767,-3.4782,-3.4815,-3.4785,-3.482,-3.4845,-3.4827,-3.4873,-3.4884,-3.4907,-3.4961,-3.4986,-3.4971,-3.5071,-3.504,-3.5044,-3.5047,-3.5078,-3.5088,-3.5097,-3.4977,-3.4976,-3.4976,0,0,-3.4759,-3.4773,-3.4813,-3.4829,-3.4853,-3.4857,-3.4867,-3.4888,-3.4894,-3.4941,-3.4928,-3.4958,-3.5011,-3.5028,-3.5044,-3.5119,-3.5107,-3.5129,-3.5166,-3.5199,-3.5207,-3.5215,-3.5241,-3.5251,-3.5134,-3.5135,-3.5135,0,-3.4788,-3.4836,-3.4835,-3.4872,-3.4889,-3.4876,-3.4917,-3.4933,-3.4965,-3.4978,-3.4962,-3.5029,-3.5044,-3.5102,-3.5121,-3.5134,-3.5146,-3.5124,-3.5206,-3.5214,-3.5221,-3.5246,-3.5256,-3.5137,-3.5137,-3.5136,-3.5136,0,-3.4871,-3.4905,-3.4935,-3.4966,-3.4988,-3.5027,-3.5032,-3.5055,-3.5051,-3.5058,-3.5107,-3.5125,-3.5158,-3.5172,-3.5169,-3.5232,-3.5222,-3.5206,-3.5176,-3.5234,-3.5257,-3.5267,-3.514,-3.514,-3.5139,-3.5138,0,0,-3.4951,-3.4983,-3.4994,-3.5009,-3.5035,-3.5062,-3.5102,-3.5134,-3.5153,-3.5177,-3.521,-3.5257,-3.5244,-3.5262,-3.5261,-3.529,-3.5348,-3.5271,-3.5271,-3.5284,-3.5419,-3.5429,-3.544,-3.5342,-3.5344,-3.5345,-3.5416,0,-3.5016,-3.5083,-3.5085,-3.5148,-3.518,-3.5169,-3.5204,-3.5225,-3.5233,-3.5262,-3.5272,-3.5305,-3.5285,-3.5296,-3.5324,-3.5335,-3.5375,-3.533,-3.5373,-3.5374,-3.5365,-3.5452,-3.5463,-3.5529,-3.5426,-3.5427,-3.5428,0,-3.5099,-3.5126,-3.5192,-3.5216,-3.5229,-3.526,-3.5291,-3.5319,-3.5344,-3.5348,-3.537,-3.5366,-3.5407,-3.5378,-3.5436,-3.5406,-3.5424,-3.5432,-3.5435,-3.5437,-3.5403,-3.5456,-3.555,-3.556,-3.5443,-3.5442,-3.5441,0,-3.515,-3.5203,-3.5249,-3.5263,-3.5291,-3.5314,-3.5327,-3.5349,-3.537,-3.5398,-3.5411,-3.5444,-3.5461,-3.5488,-3.5493,-3.5471,-3.5551,-3.5522,-3.5556,-3.5556,-3.5571,-3.557,-3.5669,-3.5586,-3.5586,-3.5586,-3.5586,0,-3.5221,-3.5262,-3.5273,-3.5301,-3.5347,-3.535,-3.5395,-3.5407,-3.5428,-3.546,-3.5454,-3.5483,-3.5489,-3.5521,-3.5526,-3.5574,-3.5582,-3.5587,-3.5588,-3.5587,-3.5586,-3.5597,-3.5592,-3.5588,-3.5588,-3.5587,-3.5587,0,-3.5284,-3.5293,-3.5343,-3.5367,-3.5375,-3.5407,-3.5428,-3.5456,-3.5466,-3.5506,-3.5516,-3.553,-3.5567,-3.5576,-3.562,-3.5624,-3.568,-3.5677,-3.5671,-3.5671,-3.5704,-3.5701,-3.5812,-3.5827,-3.5736,-3.5737,-3.5737,0,-3.5328,-3.5359,-3.5387,-3.5408,-3.5422,-3.5455,-3.5476,-3.5482,-3.5504,-3.5536,-3.5561,-3.5597,-3.5626,-3.5687,-3.5702,-3.5737,-3.5733,-3.577,-3.5738,-3.5737,-3.5733,-3.573,-3.5734,-3.5775,-3.5776,-3.5777,-3.5778,0,-3.5405,-3.5408,-3.5438,-3.5471,-3.5496,-3.5522,-3.5547,-3.5565,-3.5574,-3.56,-3.5638,-3.5661,-3.5707,-3.5744,-3.5779,-3.5794,-3.5788,-3.5788,-3.5798,-3.5796,-3.5791,-3.5794,-3.5687,-3.5785,-3.5784,-3.5784,-3.5783,-3.5783,-3.5459,-3.5486,-3.5511,-3.5545,-3.5565,-3.5589,-3.5617,-3.563,-3.5662,-3.5699,-3.5702,-3.5743,-3.577,-3.5817,-3.5834,-3.5868,-3.5856,-3.587,-3.5873,-3.5876,-3.5879,-3.5788,-3.5874,-3.5874,-3.5874,-3.5874,-3.5874,0,-3.5534,-3.555,-3.5582,-3.5617,-3.5645,-3.5638,-3.5666,-3.569,-3.5726,-3.5752,-3.5781,-3.5826,-3.5863,-3.5882,-3.5919,-3.5942,-3.594,-3.5951,-3.5949,-3.5952,-3.5887,-3.5875,-3.5952,-3.5952,-3.5952,-3.5952,-3.5952,-3.5952,-3.5577,-3.5623,-3.563,-3.5687,-3.5703,-3.5744,-3.576,-3.5783,-3.5803,-3.5854,-3.5884,-3.5897,-3.592,-3.5959,-3.5993,-3.5998,-3.6011,-3.6023,-3.6027,-3.5965,-3.5957,-3.5949,-3.5937,-3.6027,-3.6027,-3.6089,-3.609,-3.609]},{"header":{"parameterUnit":"m.s-1","parameterCategory":1,"la1":30.2991,"la2":30.254,"lo1":-89.0895,"lo2":-89.0444,"dy":0.0017,"dx":0.0017,"nx":28,"ny":28,"refTime":"2025-04-20T03:00:00:Z","depth":0,"parameterNumber":3,"parameterNumberName":"V-component_of_WINDS"},"data":[0,0,0,0,0,0,0,0,0,0,0,0,0,0,0,0,0,0,0,0,0,0,0,0,0,0,0,0,0,0,0,0,0,0,0,0,0,0,0,0,0,0,0,0,0,0,0,0,0,0,0,0,0,0,0,0,0,0,4.5541,4.5541,0,4.5543,4.5543,4.5543,4.5563,4.5563,4.5564,4.5564,4.5562,4.5562,4.5561,0,0,0,0,0,0,0,0,0,0,0,0,0,4.5548,4.5548,4.5541,4.5541,4.5541,4.5543,4.5543,4.5543,4.5563,4.5563,4.5564,4.5565,4.5562,4.5562,4.5561,0,0,0,0,0,0,0,0,0,0,0,0,0,4.5547,4.5548,4.5541,4.5551,4.5552,4.5543,4.5543,4.5543,4.5563,4.5563,4.5564,4.5565,4.5563,4.5562,4.5561,4.5541,0,0,4.5559,4.5558,0,0,0,0,0,0,0,0,4.5547,4.5547,4.5549,4.555,4.5551,4.5554,4.5545,4.5543,4.5563,4.5558,4.5564,4.5565,4.5558,4.5558,4.5557,4.5541,4.5541,4.5559,4.5558,4.5558,4.5558,0,0,0,0,0,0,0,4.5547,4.5547,4.5541,4.5549,4.555,4.5554,4.5555,4.5545,4.5554,4.5559,4.556,4.5561,4.5559,4.5557,4.5557,4.5541,4.5559,4.5558,4.5557,4.5557,4.5511,4.551,0,0,0,0,0,0,4.5547,4.5547,4.5541,4.5542,4.5551,4.5553,4.5554,4.5552,4.5554,4.5555,4.556,4.5561,4.5558,4.5558,4.5557,4.5535,4.5558,4.5557,4.5557,4.5512,4.5511,4.551,0,0,0,0,0,0,4.5547,4.5546,4.5541,4.5545,4.5544,4.5552,4.555,4.5552,4.555,4.5555,4.5556,4.5557,4.5559,4.5558,4.5546,4.5535,4.5557,4.5556,4.5513,4.5511,4.551,4.5489,0,0,0,0,0,0,4.5547,4.5546,4.5539,4.5545,4.5544,4.5531,4.5549,4.5551,4.5549,4.5551,4.5553,4.5554,4.5559,4.5547,4.5545,4.5534,4.5555,4.5514,4.5512,4.5511,4.5491,4.5488,4.5485,0,0,0,0,0,4.5547,4.5532,4.5539,4.5538,4.5536,4.553,4.553,4.5539,4.5548,4.5541,4.5545,4.5553,4.5537,4.5545,4.5543,4.5532,4.5514,4.5512,4.5511,4.5493,4.5488,4.5485,0,0,0,0,0,0,4.5523,4.5533,4.554,4.5527,4.5528,4.5534,4.5525,4.5534,4.5531,4.5533,4.5542,4.5542,4.5528,4.5529,4.5539,4.5514,4.5527,4.5525,4.5514,4.551,4.5507,4.5506,4.5555,0,0,0,0,0,4.5517,4.5512,4.5521,4.5508,4.5508,4.5517,4.5514,4.5521,4.5522,4.5522,4.5524,4.5523,4.5518,4.5514,4.5509,4.5492,4.5492,4.5483,4.548,4.5477,4.5475,4.5466,4.5462,4.5504,4.5504,4.5504,0,0,4.5502,4.5507,4.5503,4.5503,4.5505,4.5499,4.5517,4.551,4.5505,4.552,4.5509,4.5511,4.5511,4.5496,4.549,4.5496,4.5464,4.5475,4.5473,4.5472,4.5464,4.546,4.5457,4.5503,4.5503,4.5503,0,0,4.5473,4.5477,4.5467,4.5469,4.5472,4.5478,4.5476,4.5481,4.5483,4.5473,4.5485,4.5479,4.5469,4.5469,4.5467,4.5441,4.5448,4.5439,4.5422,4.5413,4.541,4.5407,4.5397,4.5393,4.5437,4.5437,4.5437,0,4.5455,4.5448,4.546,4.5453,4.5453,4.5468,4.5458,4.5459,4.5459,4.5458,4.5466,4.5455,4.5456,4.5442,4.5436,4.5434,4.5431,4.5438,4.541,4.5407,4.5404,4.5395,4.5391,4.5435,4.5436,4.5436,4.5436,0,4.5425,4.542,4.5412,4.5414,4.5413,4.5404,4.5414,4.5411,4.5418,4.5423,4.5413,4.5415,4.5411,4.5408,4.5414,4.5395,4.5399,4.5408,4.5421,4.5399,4.539,4.5387,4.5434,4.5434,4.5434,4.5435,0,0,4.5379,4.539,4.5387,4.5389,4.5394,4.539,4.5382,4.5381,4.5378,4.5378,4.5371,4.5364,4.5373,4.5371,4.5377,4.537,4.5349,4.538,4.538,4.5374,4.5327,4.532,4.5316,4.5355,4.5354,4.5354,4.5327,0,4.5352,4.534,4.5351,4.5337,4.5332,4.5348,4.5341,4.5343,4.5348,4.5344,4.5349,4.5344,4.5356,4.5355,4.5349,4.5353,4.5339,4.5355,4.5347,4.5347,4.5346,4.5311,4.5303,4.5278,4.5324,4.5323,4.5323,0,4.5317,4.5318,4.5304,4.5311,4.531,4.5304,4.5304,4.53,4.5303,4.5307,4.5306,4.5315,4.5307,4.5321,4.531,4.532,4.5318,4.532,4.5319,4.5317,4.5333,4.5308,4.527,4.5266,4.5318,4.5318,4.5319,0,4.5285,4.5283,4.5274,4.5275,4.5284,4.5279,4.5282,4.5286,4.5284,4.5284,4.5283,4.5281,4.528,4.5278,4.5286,4.5296,4.5273,4.5288,4.5276,4.5275,4.5269,4.5269,4.5229,4.5269,4.5269,4.5269,4.5269,0,4.5252,4.5243,4.526,4.5254,4.5244,4.5257,4.5246,4.5251,4.5255,4.525,4.5263,4.5257,4.5269,4.5265,4.5271,4.5261,4.526,4.5262,4.5264,4.5261,4.526,4.5258,4.526,4.5268,4.5268,4.5268,4.5269,0,4.5214,4.5225,4.5217,4.5227,4.5229,4.5221,4.5229,4.5224,4.523,4.5224,4.5223,4.5233,4.5229,4.5237,4.5233,4.5238,4.5223,4.5228,4.5223,4.5224,4.5211,4.5211,4.5167,4.5162,4.5206,4.5205,4.5205,0,4.5192,4.5186,4.5195,4.5194,4.5197,4.5194,4.5194,4.5206,4.5205,4.5209,4.5203,4.52,4.5199,4.5191,4.5197,4.5195,4.5199,4.5184,4.5198,4.5196,4.5198,4.5198,4.5197,4.518,4.518,4.5179,4.5179,0,4.5152,4.5158,4.5158,4.5159,4.5159,4.516,4.5162,4.516,4.5174,4.5172,4.5169,4.5168,4.5166,4.5162,4.5162,4.5164,4.5173,4.5175,4.5172,4.5168,4.5165,4.5166,4.5214,4.5175,4.5176,4.5176,4.5176,4.5176,4.5121,4.5116,4.5123,4.5122,4.5125,4.5127,4.5124,4.5131,4.5129,4.5129,4.5137,4.5132,4.5136,4.5136,4.5137,4.5133,4.514,4.5135,4.5134,4.5133,4.513,4.5167,4.5133,4.5133,4.5133,4.5134,4.5134,0,4.5081,4.5087,4.5086,4.509,4.5089,4.51,4.5104,4.5102,4.5098,4.5102,4.5101,4.5098,4.5095,4.5102,4.51,4.5096,4.51,4.5095,4.5095,4.5095,4.5125,4.5127,4.5091,4.5091,4.5091,4.5092,4.5092,4.5092,4.506,4.5053,4.506,4.5054,4.506,4.5057,4.5058,4.506,4.5063,4.5059,4.5058,4.5063,4.5067,4.5067,4.5065,4.5067,4.5065,4.5058,4.5062,4.5089,4.5093,4.5097,4.5099,4.5058,4.5058,4.5032,4.5032,4.5032]}]]